Time,TemperatureF,DewpointF,PressureIn,WindDirection,WindDirectionDegrees,WindSpeedMPH,WindSpeedGustMPH,Humidity,HourlyPrecipIn,Conditions,Clouds,dailyrainin,SoftwareType,DateUTC
2013-01-21 19:27:00,24.6,13.3,-100.00,North,-999,-999.0,-999.0,58,-99.99,,,-99.99,WSDL version 420,2013-01-22 02:27:00,
2013-01-21 19:28:00,24.6,13.3,-100.00,North,-999,-999.0,-999.0,58,-99.99,,,-99.99,WSDL version 420,2013-01-22 02:28:00,
2013-01-21 19:29:00,24.6,13.3,-100.00,North,-999,-999.0,-999.0,58,-99.99,,,-99.99,WSDL version 420,2013-01-22 02:29:00,
2013-01-21 19:34:00,24.6,13.3,-100.00,North,-999,-999.0,-999.0,58,-99.99,,,-99.99,WSDL version 420,2013-01-22 02:34:00,
2013-01-21 19:39:00,24.4,13.2,-100.00,North,-999,-999.0,-999.0,58,-99.99,,,-99.99,WSDL version 420,2013-01-22 02:39:00,
2013-01-21 19:44:00,24.3,13.0,-100.00,North,-999,-999.0,-999.0,58,-99.99,,,-99.99,WSDL version 420,2013-01-22 02:44:00,
2013-01-21 19:49:00,24.0,12.8,-100.00,North,-999,-999.0,-999.0,58,-99.99,,,-99.99,WSDL version 420,2013-01-22 02:49:00,
2013-01-21 19:54:00,23.9,12.7,-100.00,North,-999,-999.0,-999.0,58,-99.99,,,-99.99,WSDL version 420,2013-01-22 02:54:00,
2013-01-21 19:55:00,23.9,12.7,-100.00,North,-999,-999.0,-999.0,58,-99.99,,,-99.99,WSDL version 420,2013-01-22 02:55:00,
2013-01-21 20:00:00,23.8,12.5,-100.00,North,-999,-999.0,-999.0,58,-99.99,,,-99.99,WSDL version 420,2013-01-22 03:00:00,
2013-01-21 20:05:00,23.7,12.5,-100.00,North,-999,-999.0,-999.0,58,-99.99,,,-99.99,WSDL version 420,2013-01-22 03:05:00,
2013-01-21 20:10:00,23.7,12.5,-100.00,North,-999,-999.0,-999.0,58,-99.99,,,-99.99,WSDL version 420,2013-01-22 03:10:00,
2013-01-21 20:15:00,23.7,12.5,-100.00,North,-999,-999.0,-999.0,58,-99.99,,,-99.99,WSDL version 420,2013-01-22 03:15:00,
2013-01-21 20:20:00,23.6,12.4,-100.00,North,-999,-999.0,-999.0,58,-99.99,,,-99.99,WSDL version 420,2013-01-22 03:20:00,
2013-01-21 20:25:00,23.5,12.3,-100.00,North,-999,-999.0,-999.0,58,-99.99,,,-99.99,WSDL version 420,2013-01-22 03:25:00,
2013-01-21 20:31:00,23.4,12.1,-100.00,North,-999,-999.0,-999.0,58,-99.99,,,-99.99,WSDL version 420,2013-01-22 03:31:00,
2013-01-21 20:36:00,23.1,11.9,-100.00,North,-999,-999.0,-999.0,58,-99.99,,,-99.99,WSDL version 420,2013-01-22 03:36:00,
2013-01-21 20:41:00,22.8,11.6,-100.00,North,-999,-999.0,-999.0,58,-99.99,,,-99.99,WSDL version 420,2013-01-22 03:41:00,
2013-01-21 20:46:00,22.8,11.6,-100.00,North,-999,-999.0,-999.0,58,-99.99,,,-99.99,WSDL version 420,2013-01-22 03:46:00,
2013-01-21 20:51:00,22.6,11.4,-100.00,North,-999,-999.0,-999.0,58,-99.99,,,-99.99,WSDL version 420,2013-01-22 03:51:00,
2013-01-21 20:57:00,22.3,11.1,-100.00,North,-999,-999.0,-999.0,58,-99.99,,,-99.99,WSDL version 420,2013-01-22 03:57:00,
2013-01-21 21:13:00,21.9,10.7,-100.00,North,-999,-999.0,-999.0,58,-99.99,,,-99.99,WSDL version 420,2013-01-22 04:13:00,
2013-01-21 21:18:00,21.7,10.8,-100.00,North,-999,-999.0,-999.0,59,-99.99,,,-99.99,WSDL version 420,2013-01-22 04:18:00,
2013-01-21 21:23:00,21.6,10.8,-100.00,North,-999,-999.0,-999.0,59,-99.99,,,-99.99,WSDL version 420,2013-01-22 04:23:00,
2013-01-21 21:28:00,21.4,10.6,-100.00,North,-999,-999.0,-999.0,59,-99.99,,,-99.99,WSDL version 420,2013-01-22 04:28:00,
2013-01-21 21:33:00,21.3,10.5,-100.00,North,-999,-999.0,-999.0,59,-99.99,,,-99.99,WSDL version 420,2013-01-22 04:33:00,
2013-01-21 21:38:00,21.1,10.4,-100.00,North,-999,-999.0,-999.0,59,-99.99,,,-99.99,WSDL version 420,2013-01-22 04:38:00,
2013-01-21 21:43:00,21.1,10.3,-100.00,North,-999,-999.0,-999.0,59,-99.99,,,-99.99,WSDL version 420,2013-01-22 04:43:00,
2013-01-21 21:48:00,20.9,10.1,-100.00,North,-999,-999.0,-999.0,59,-99.99,,,-99.99,WSDL version 420,2013-01-22 04:48:00,
2013-01-21 21:53:00,20.6,9.9,-100.00,North,-999,-999.0,-999.0,59,-99.99,,,-99.99,WSDL version 420,2013-01-22 04:53:00,
2013-01-21 21:58:00,20.5,10.0,-100.00,North,-999,-999.0,-999.0,60,-99.99,,,-99.99,WSDL version 420,2013-01-22 04:58:00,
2013-01-21 22:01:00,20.5,10.1,-100.00,North,-999,-999.0,-999.0,60,-99.99,,,-99.99,WSDL version 420,2013-01-22 05:01:00,
2013-01-21 22:03:00,20.5,10.1,-100.00,North,-999,-999.0,-999.0,60,-99.99,,,-99.99,WSDL version 420,2013-01-22 05:03:00,
2013-01-21 22:04:00,20.5,10.1,-100.00,North,-999,-999.0,-999.0,60,-99.99,,,-99.99,WSDL version 420,2013-01-22 05:04:00,
2013-01-21 22:08:00,20.5,10.0,-100.00,North,-999,-999.0,-999.0,60,-99.99,,,-99.99,WSDL version 420,2013-01-22 05:08:00,
2013-01-21 22:14:00,20.3,9.9,-100.00,North,-999,-999.0,-999.0,60,-99.99,,,-99.99,WSDL version 420,2013-01-22 05:14:00,
2013-01-21 22:19:00,20.3,9.9,-100.00,North,-999,-999.0,-999.0,60,-99.99,,,-99.99,WSDL version 420,2013-01-22 05:19:00,
2013-01-21 22:24:00,20.1,9.7,-100.00,North,-999,-999.0,-999.0,60,-99.99,,,-99.99,WSDL version 420,2013-01-22 05:24:00,
2013-01-21 22:29:00,20.1,9.7,-100.00,North,-999,-999.0,-999.0,60,-99.99,,,-99.99,WSDL version 420,2013-01-22 05:29:00,
2013-01-21 22:34:00,19.9,9.5,-100.00,North,-999,-999.0,-999.0,60,-99.99,,,-99.99,WSDL version 420,2013-01-22 05:34:00,
2013-01-21 22:39:00,19.9,9.5,-100.00,North,-999,-999.0,-999.0,60,-99.99,,,-99.99,WSDL version 420,2013-01-22 05:39:00,
2013-01-21 22:44:00,19.8,9.4,-100.00,North,-999,-999.0,-999.0,60,-99.99,,,-99.99,WSDL version 420,2013-01-22 05:44:00,
2013-01-21 22:49:00,19.7,9.3,-100.00,North,-999,-999.0,-999.0,60,-99.99,,,-99.99,WSDL version 420,2013-01-22 05:49:00,
2013-01-21 22:54:00,19.6,9.2,-100.00,North,-999,-999.0,-999.0,60,-99.99,,,-99.99,WSDL version 420,2013-01-22 05:54:00,
2013-01-21 22:59:00,19.6,9.5,-100.00,North,-999,-999.0,-999.0,61,-99.99,,,-99.99,WSDL version 420,2013-01-22 05:59:00,
2013-01-21 23:04:00,19.5,9.3,-100.00,North,-999,-999.0,-999.0,61,-99.99,,,-99.99,WSDL version 420,2013-01-22 06:04:00,
2013-01-21 23:09:00,19.3,9.3,-100.00,North,-999,-999.0,-999.0,61,-99.99,,,-99.99,WSDL version 420,2013-01-22 06:09:00,
2013-01-21 23:14:00,19.3,9.3,-100.00,North,-999,-999.0,-999.0,61,-99.99,,,-99.99,WSDL version 420,2013-01-22 06:14:00,
2013-01-21 23:19:00,19.3,9.3,-100.00,North,-999,-999.0,-999.0,61,-99.99,,,-99.99,WSDL version 420,2013-01-22 06:19:00,
2013-01-21 23:24:00,19.2,9.1,-100.00,North,-999,-999.0,-999.0,61,-99.99,,,-99.99,WSDL version 420,2013-01-22 06:24:00,
2013-01-21 23:29:00,19.0,9.0,-100.00,North,-999,-999.0,-999.0,61,-99.99,,,-99.99,WSDL version 420,2013-01-22 06:29:00,
2013-01-21 23:34:00,18.9,8.9,-100.00,North,-999,-999.0,-999.0,61,-99.99,,,-99.99,WSDL version 420,2013-01-22 06:34:00,
2013-01-21 23:39:00,18.7,8.6,-100.00,North,-999,-999.0,-999.0,61,-99.99,,,-99.99,WSDL version 420,2013-01-22 06:39:00,
2013-01-21 23:44:00,18.6,8.8,-100.00,North,-999,-999.0,-999.0,62,-99.99,,,-99.99,WSDL version 420,2013-01-22 06:44:00,
2013-01-21 23:49:00,18.4,8.6,-100.00,North,-999,-999.0,-999.0,61,-99.99,,,-99.99,WSDL version 420,2013-01-22 06:49:00,
2013-01-21 23:54:00,18.2,8.4,-100.00,North,-999,-999.0,-999.0,62,-99.99,,,-99.99,WSDL version 420,2013-01-22 06:54:00,